TimeEST,TemperatureF,Dew PointF,Humidity,Sea Level PressureIn,VisibilityMPH,Wind Direction,Wind SpeedMPH,Gust SpeedMPH,PrecipitationIn,Events,Conditions,WindDirDegrees,DateUTC
12:15 AM,60.8,59.0,94,30.13,10.0,South,9.2,-,N/A,,Clear,180,2013-01-30 05:15:00
12:35 AM,62.6,60.8,94,30.13,10.0,South,9.2,-,N/A,,Clear,180,2013-01-30 05:35:00
12:55 AM,59.0,57.2,94,30.12,10.0,South,8.1,-,N/A,,Clear,170,2013-01-30 05:55:00
1:15 AM,59.0,57.2,94,30.12,10.0,South,9.2,-,N/A,,Clear,190,2013-01-30 06:15:00
1:35 AM,60.8,59.0,94,30.11,10.0,South,10.4,-,N/A,,Clear,180,2013-01-30 06:35:00
1:55 AM,60.8,59.0,94,30.11,10.0,South,10.4,-,N/A,,Clear,180,2013-01-30 06:55:00
2:15 AM,62.6,60.8,94,30.10,10.0,South,12.7,-,N/A,,Clear,170,2013-01-30 07:15:00
2:35 AM,60.8,59.0,94,30.09,10.0,South,10.4,-,N/A,,Clear,180,2013-01-30 07:35:00
2:55 AM,60.8,57.2,88,30.09,10.0,South,9.2,-,N/A,,Clear,180,2013-01-30 07:55:00
3:15 AM,60.8,57.2,88,30.08,10.0,South,10.4,-,N/A,,Clear,180,2013-01-30 08:15:00
3:35 AM,60.8,59.0,94,30.09,10.0,SSW,6.9,-,N/A,,Clear,210,2013-01-30 08:35:00
3:55 AM,62.6,60.8,94,30.08,10.0,SSW,10.4,-,N/A,,Clear,200,2013-01-30 08:55:00
4:15 AM,62.6,60.8,94,30.07,10.0,South,12.7,-,N/A,,Clear,190,2013-01-30 09:15:00
4:35 AM,62.6,60.8,94,30.07,10.0,South,11.5,-,N/A,,Clear,190,2013-01-30 09:35:00
4:55 AM,62.6,60.8,94,30.06,10.0,South,13.8,-,N/A,,Clear,190,2013-01-30 09:55:00
5:15 AM,64.4,60.8,88,30.06,10.0,South,12.7,-,N/A,,Clear,190,2013-01-30 10:15:00
5:35 AM,64.4,60.8,88,30.06,10.0,South,10.4,-,N/A,,Clear,190,2013-01-30 10:35:00
5:47 AM,64.4,60.8,88,30.06,10.0,SSW,12.7,-,N/A,,Clear,200,2013-01-30 10:47:00
6:47 AM,60.8,59.0,94,30.05,10.0,South,13.8,-,N/A,,Clear,190,2013-01-30 11:47:00
7:47 AM,60.8,57.2,88,30.03,7.0,South,13.8,-,N/A,Fog,Fog,190,2013-01-30 12:47:00
8:45 AM,62.6,60.8,94,30.03,8.0,South,13.8,20.7,N/A,,Overcast,190,2013-01-30 13:45:00
9:32 AM,64.4,60.8,88,30.00,10.0,South,17.3,23.0,N/A,,Partly Cloudy,190,2013-01-30 14:32:00
9:50 AM,66.2,62.6,88,30.00,10.0,SSW,17.3,23.0,N/A,,Partly Cloudy,200,2013-01-30 14:50:00
10:45 AM,66.2,60.8,83,30.00,10.0,SSW,17.3,23.0,N/A,,Mostly Cloudy,200,2013-01-30 15:45:00
11:45 AM,69.8,62.6,78,29.97,10.0,SSW,20.7,28.8,N/A,,Overcast,200,2013-01-30 16:45:00
12:45 PM,64.4,62.6,94,29.93,6.0,SSW,23.0,-,N/A,Rain,Light Rain,200,2013-01-30 17:45:00
1:50 PM,66.2,60.8,83,29.89,7.0,South,18.4,26.5,N/A,,Mostly Cloudy,180,2013-01-30 18:50:00
2:10 PM,66.2,60.8,83,29.89,6.0,South,18.4,26.5,N/A,,Mostly Cloudy,180,2013-01-30 19:10:00
2:45 PM,66.2,60.8,83,-9999,7.0,SSW,20.7,27.6,N/A,Rain,Light Rain,200,2013-01-30 19:45:00
3:48 PM,66.2,62.6,88,29.83,7.0,SSW,19.6,25.3,N/A,,Mostly Cloudy,210,2013-01-30 20:48:00
4:45 PM,66.2,60.8,83,29.81,7.0,SSW,17.3,-,N/A,,Mostly Cloudy,200,2013-01-30 21:45:00
5:45 PM,62.6,59.0,88,29.79,6.0,SSW,17.3,-,N/A,,Scattered Clouds,200,2013-01-30 22:45:00
6:50 PM,62.6,59.0,88,29.75,6.0,SSW,18.4,-,N/A,,Mostly Cloudy,200,2013-01-30 23:50:00
7:50 PM,62.6,60.8,94,29.73,8.0,South,19.6,-,N/A,,Scattered Clouds,190,2013-01-31 00:50:00
8:47 PM,62.6,60.8,94,29.73,6.0,South,18.4,27.6,N/A,,Mostly Cloudy,190,2013-01-31 01:47:00
9:50 PM,62.6,59.0,88,29.68,6.0,South,16.1,26.5,N/A,,Partly Cloudy,190,2013-01-31 02:50:00
11:15 PM,62.6,60.8,94,29.64,6.0,South,20.7,28.8,N/A,,Clear,190,2013-01-31 04:15:00
11:35 PM,64.4,60.8,88,29.63,7.0,South,18.4,23.0,N/A,,Scattered Clouds,180,2013-01-31 04:35:00
11:55 PM,64.4,60.8,88,29.62,7.0,South,23.0,32.2,N/A,,Overcast,190,2013-01-31 04:55:00